Wind_Speed
30 30 30 30 31 34 34 33 34 33 30 29 30 31 31 34 34 33 32 31 28 27 27 24 23 24 24 24 26 26 26 27 29 32 33 32 32 31 31 31 31 32 32 32 33 33 33 33 34 35 34 33 33 33 34 34 34 34 33 31 30 29 28 23 13 9 13 16 16 18 19 19 20 21 22 26 30 33 35 36 35 34 32 31 32
30 30 30 30 32 34 33 30 30 30 28 27 29 30 30 31 31 29 30 30 27 26 26 25 24 25 25 25 27 28 30 33 34 35 35 34 33 32 32 33 33 33 33 33 33 33 33 34 34 34 32 32 33 33 33 34 33 33 33 31 30 30 29 26 18 11 12 16 18 19 19 19 20 21 22 24 28 31 34 36 36 35 34 33 34
29 29 29 30 32 32 30 29 29 29 27 27 28 28 28 28 26 27 27 26 26 27 27 26 26 26 26 26 28 31 34 35 35 35 36 35 34 34 34 34 34 34 34 34 34 34 34 35 35 34 32 31 32 33 33 34 34 33 33 32 31 31 31 28 23 17 14 16 17 18 18 18 19 21 21 22 26 29 32 35 36 36 35 35 35
26 27 28 30 31 30 31 31 31 31 28 27 28 27 26 26 26 28 27 25 27 29 28 27 28 29 29 29 31 34 35 35 35 35 36 36 35 35 35 35 35 35 35 35 34 34 33 34 34 34 33 32 33 33 33 33 33 33 32 32 31 31 31 29 26 23 19 14 12 15 17 17 18 20 20 21 25 28 30 32 35 36 36 35 35
26 26 27 29 30 31 32 33 33 34 31 27 27 26 25 25 27 30 30 28 30 32 31 31 31 32 34 34 34 35 35 35 35 35 36 36 35 35 35 35 35 35 36 36 35 34 34 34 34 34 33 33 34 34 34 33 33 32 31 30 30 30 29 27 25 23 19 15 12 13 15 15 18 20 20 21 23 25 28 31 33 35 35 36 37
25 26 27 28 30 31 33 33 34 36 33 28 25 24 23 24 25 30 33 31 31 33 34 35 35 36 36 36 35 36 35 35 36 36 36 36 35 35 35 35 35 35 36 36 35 35 35 34 34 34 34 34 34 33 33 33 32 31 31 31 30 28 26 25 24 22 20 18 15 15 16 17 18 19 19 20 22 24 26 29 32 34 35 36 38
25 26 27 28 30 32 33 33 34 35 33 32 28 24 23 25 25 29 34 34 33 35 35 36 37 37 37 36 36 36 35 36 36 36 36 35 35 35 35 35 35 35 35 35 35 35 35 35 34 34 34 34 33 32 31 31 31 31 31 30 28 26 23 22 22 21 20 20 19 18 19 19 18 17 17 19 20 22 24 24 25 31 35 37 38
25 26 27 28 31 32 32 31 32 31 29 30 31 27 26 29 29 28 31 35 36 36 36 36 36 36 37 37 37 36 36 36 36 36 36 36 35 35 35 35 34 34 34 35 35 36 35 35 34 33 33 33 31 30 30 30 30 29 29 27 25 24 21 20 20 19 19 20 21 20 19 17 16 15 15 16 17 20 25 24 21 23 30 36 38
25 26 27 30 33 32 30 28 29 29 29 30 31 30 30 32 31 30 31 34 35 36 35 35 34 35 36 36 37 37 37 37 37 37 37 35 35 35 35 35 34 34 33 34 35 36 35 33 32 31 31 31 30 28 26 25 25 25 26 25 24 23 21 19 19 20 19 18 18 18 15 14 17 18 17 20 23 23 24 26 24 20 20 25 31
26 27 29 33 34 32 29 28 29 30 31 32 32 32 32 32 32 32 33 34 34 34 34 33 33 34 35 36 36 36 37 38 38 37 37 36 35 34 35 35 34 33 33 34 34 34 33 31 30 30 29 27 26 24 22 21 21 21 22 23 22 22 23 22 21 20 20 18 17 17 15 13 19 24 24 26 28 24 20 23 27 23 15 14 20
27 29 31 34 33 31 30 29 29 30 31 31 31 31 32 31 31 32 33 34 34 34 33 33 34 35 34 35 35 36 37 37 37 37 37 36 35 35 34 33 33 33 33 33 32 31 31 29 29 28 27 25 24 22 20 20 20 20 21 21 21 21 23 24 22 21 20 18 16 18 17 15 19 25 27 25 24 24 22 22 22 18 13 11 12
27 30 32 33 32 31 30 29 29 30 30 30 31 30 29 30 31 32 33 33 33 32 33 34 35 35 34 34 35 36 36 36 37 36 35 35 36 35 34 32 32 32 32 31 30 29 29 28 27 26 25 25 24 22 22 21 20 20 21 22 21 20 20 21 21 21 22 20 18 18 20 18 18 22 25 24 22 24 23 21 19 17 14 13 12
25 28 31 32 31 31 30 29 29 30 30 30 29 28 28 30 32 32 32 32 31 31 32 33 34 34 34 34 34 35 35 35 35 34 33 35 36 34 33 32 31 31 30 30 30 29 28 27 25 24 24 23 22 22 22 22 21 21 21 20 20 20 19 18 19 20 21 22 21 20 22 22 20 21 23 23 22 22 21 21 23 22 19 17 16
25 26 29 30 31 30 29 29 31 31 30 29 28 28 29 31 32 31 31 29 29 30 31 32 33 33 34 34 34 35 35 35 34 34 34 35 33 31 31 31 30 29 28 29 29 29 28 27 25 24 23 23 23 23 23 22 21 21 22 21 20 20 19 19 20 20 21 22 22 21 20 21 20 20 20 20 20 20 21 22 24 24 23 22 20
24 25 28 30 31 30 29 30 31 31 30 28 27 28 30 31 32 31 30 30 30 31 31 31 32 32 32 32 32 33 34 34 33 32 31 30 28 28 29 29 29 28 26 26 27 26 26 27 26 24 24 25 25 24 23 23 23 23 23 22 21 21 20 19 20 21 22 22 22 20 19 18 19 19 19 18 17 18 20 22 21 21 20 20 19
25 27 28 30 31 31 30 30 31 31 29 27 27 29 31 32 32 31 29 29 30 30 31 31 32 32 31 31 31 32 33 31 30 29 29 29 28 28 28 28 28 27 25 24 24 23 24 25 24 23 25 26 25 23 22 22 23 23 23 22 21 21 20 19 19 20 21 21 21 20 20 19 18 17 17 16 14 14 16 17 17 15 13 11 12
26 28 30 32 32 32 31 30 30 30 28 27 30 32 32 32 32 30 29 29 30 30 31 31 31 31 30 30 31 31 30 28 28 28 29 30 30 29 29 29 28 27 26 25 23 22 22 22 23 24 25 25 24 22 22 23 24 23 23 22 22 21 20 20 19 19 20 20 20 19 19 18 16 14 14 13 12 13 13 14 14 13 10 7 7
26 29 32 34 34 33 31 29 30 29 28 30 33 33 32 32 32 31 31 31 32 32 32 30 30 29 29 30 30 30 28 28 28 28 28 29 31 31 31 30 28 27 26 25 24 23 23 23 23 24 25 24 24 23 23 24 24 24 23 22 21 21 21 20 19 18 18 18 18 17 16 14 13 12 11 11 11 12 12 13 13 12 10 8 7
26 30 32 34 34 34 31 30 30 30 30 33 34 33 32 31 31 30 31 31 31 31 30 30 30 30 30 30 30 30 29 28 29 28 27 28 30 31 31 30 29 28 27 26 25 24 25 25 25 25 24 24 24 24 24 24 24 23 23 22 22 22 21 19 18 18 17 16 16 15 15 14 13 11 11 11 10 10 10 12 12 11 9 8 7
26 29 31 32 33 33 32 31 31 32 33 34 32 30 29 28 28 29 30 29 28 27 28 29 29 29 29 29 28 29 29 28 28 28 28 28 29 29 30 30 29 28 27 27 26 26 26 27 26 26 25 25 25 25 25 25 24 23 23 23 22 21 19 17 17 16 15 14 14 13 13 12 11 11 10 10 10 9 10 12 13 11 8 5 5
26 27 28 29 30 31 31 32 32 33 33 32 29 27 26 26 27 28 28 27 26 26 27 28 28 28 29 29 29 29 28 28 29 29 30 30 30 30 31 30 30 28 27 27 27 28 29 29 28 27 27 26 25 24 24 23 22 22 23 22 21 18 17 16 16 14 13 12 12 11 11 10 10 10 9 9 10 10 11 12 13 11 9 7 5
26 26 27 27 27 28 30 31 32 32 32 30 28 28 27 27 27 27 27 27 27 27 27 27 27 27 28 29 30 30 29 29 29 29 31 32 32 32 33 32 31 29 28 28 28 29 30 30 30 29 29 27 25 24 23 22 22 21 21 19 18 15 14 15 15 15 14 13 12 11 11 10 9 9 10 10 10 10 10 10 10 10 10 9 8
27 26 26 26 26 28 29 31 31 32 31 30 28 28 27 27 27 28 28 28 27 27 27 26 26 25 25 26 28 29 30 30 30 30 30 30 30 30 31 31 30 30 30 29 30 29 29 30 30 29 27 26 24 23 22 22 21 20 18 17 16 14 14 15 16 16 15 14 12 10 10 9 8 8 8 8 8 7 7 7 8 8 8 8 8
27 27 27 26 26 27 28 30 31 31 30 29 28 28 27 27 27 28 29 28 27 26 26 26 25 24 24 24 25 27 28 29 30 31 31 31 31 30 30 30 29 30 30 30 31 31 30 30 30 28 26 24 23 22 22 22 21 19 18 17 16 15 16 17 17 17 16 14 11 9 9 9 8 6 7 7 6 6 6 6 5 5 5 5 5
27 28 28 27 26 25 25 27 28 29 28 27 27 28 27 27 28 29 28 28 27 26 26 26 26 25 24 24 25 27 28 28 28 28 28 29 29 28 28 28 28 27 28 27 27 29 29 28 27 27 26 25 23 22 22 21 20 19 18 16 16 16 17 17 18 17 14 12 9 8 9 9 8 7 7 7 7 6 6 5 4 3 3 3 2
26 27 27 26 26 24 23 24 25 26 26 26 28 28 27 27 29 29 28 28 28 27 26 26 26 25 24 24 25 26 26 27 27 28 27 27 28 28 27 27 26 26 27 26 25 25 25 25 27 27 25 25 24 23 22 20 18 17 16 16 17 17 16 17 16 14 11 10 9 9 9 10 10 9 8 8 7 7 6 5 4 3 2 2 1
23 24 24 24 24 22 21 22 22 23 25 25 27 28 27 27 29 29 29 29 30 28 26 26 27 26 24 24 25 25 26 26 27 28 29 30 30 29 29 28 26 25 25 24 23 23 24 25 26 26 25 24 23 22 22 20 19 18 17 16 17 16 15 15 14 11 10 11 11 11 12 12 11 10 9 8 7 7 6 6 5 4 2 2 2
21 21 21 22 22 20 20 21 21 22 24 25 27 28 27 27 29 32 33 33 32 31 29 28 31 30 26 24 24 22 23 28 31 33 35 34 32 30 28 27 27 26 26 24 24 25 27 27 26 25 25 24 22 22 22 20 18 19 19 18 16 15 14 14 14 13 13 13 13 13 12 11 9 8 8 7 6 6 5 5 5 4 3 2 2
20 18 17 18 19 19 19 20 20 21 22 23 26 28 28 29 30 32 33 34 34 32 29 28 32 32 28 27 26 22 23 31 36 37 36 36 34 32 31 30 29 28 28 29 30 30 29 28 27 26 25 24 23 22 21 20 18 19 20 19 18 17 16 15 13 13 13 13 12 11 10 8 8 8 7 6 6 6 5 4 4 4 4 3 2
17 16 14 13 14 16 16 17 18 19 19 19 22 25 27 28 30 30 29 30 32 32 29 27 29 30 29 29 29 29 30 33 35 35 35 35 35 35 34 34 32 31 31 33 33 32 31 30 29 27 28 28 26 21 19 20 21 21 20 19 18 16 14 12 11 10 11 10 10 10 10 9 9 9 8 7 7 6 5 5 4 4 3 3 3
15 13 11 10 11 12 14 15 16 16 16 17 19 22 23 25 27 28 28 26 28 32 33 29 26 27 28 28 28 29 30 30 31 34 36 35 35 35 35 34 34 34 36 35 31 30 32 32 29 28 28 28 28 25 22 22 22 22 21 19 15 13 12 11 10 11 11 11 10 10 10 10 9 9 8 8 7 7 6 5 4 4 3 3 2
16 14 12 10 10 10 12 13 14 14 15 17 19 20 20 20 20 22 25 26 27 30 33 32 30 29 30 30 29 28 28 28 30 33 35 36 36 35 33 33 33 35 37 34 29 29 34 33 29 29 28 27 27 27 27 25 23 24 24 21 16 14 14 14 14 14 13 13 13 12 11 11 10 9 9 8 8 7 6 5 4 4 4 3 2
19 18 15 12 10 10 11 13 14 15 17 18 19 19 19 18 16 16 19 22 24 26 29 32 33 32 31 32 31 30 29 30 31 32 34 36 36 34 32 33 35 37 36 30 24 27 32 32 29 29 28 27 27 28 28 27 26 26 25 24 21 20 18 18 17 17 16 15 14 13 12 12 12 11 10 9 8 6 5 5 5 4 4 3 3
20 20 18 16 13 11 11 13 14 15 17 18 18 19 20 20 18 16 14 14 16 19 23 27 29 30 30 31 32 31 30 31 31 32 34 35 35 34 33 32 33 35 33 28 26 28 30 28 28 28 28 28 28 28 27 27 27 26 25 24 23 22 20 19 19 18 17 17 15 14 13 12 11 10 9 8 7 6 5 5 5 5 5 4 3
22 22 21 19 17 14 12 13 14 15 16 17 18 20 20 20 20 18 15 13 13 14 16 19 23 24 26 28 30 30 29 29 29 32 34 34 34 35 34 31 29 29 27 25 28 31 31 29 29 29 28 28 29 28 27 27 26 25 25 24 23 22 21 20 19 18 17 16 15 14 14 12 10 8 8 7 7 6 6 6 6 5 5 4 3
22 22 21 20 19 18 16 14 15 16 17 17 19 20 20 19 18 18 17 16 15 12 12 14 17 19 22 24 26 28 28 27 28 32 34 35 37 37 34 30 26 25 23 23 26 29 31 31 31 30 28 28 28 27 27 27 26 25 25 24 23 22 21 19 18 18 17 15 15 14 13 11 10 8 7 7 7 6 6 6 6 5 5 4 4
22 21 20 19 18 18 18 17 17 17 17 18 18 18 18 17 17 16 15 14 13 11 11 12 14 14 16 19 22 25 26 27 29 32 33 35 37 36 32 29 26 24 24 26 27 28 28 29 30 30 29 28 28 28 27 27 26 25 24 23 21 20 19 18 18 17 15 13 12 12 10 8 8 7 7 7 7 7 6 6 6 5 5 4 4
24 23 23 22 20 19 18 17 17 18 17 17 17 18 17 16 16 16 14 14 14 13 13 14 15 14 15 17 20 22 24 26 28 29 31 34 35 30 26 27 27 27 28 30 29 29 29 28 29 30 29 27 27 26 24 24 24 23 21 20 18 16 16 17 17 16 12 10 9 10 9 7 7 7 7 7 7 7 7 6 6 5 5 5 4
25 25 25 25 23 21 19 17 17 18 18 18 18 18 17 16 16 16 15 15 15 15 15 15 15 15 16 18 20 23 24 25 26 27 28 30 29 23 20 22 24 27 29 30 30 30 30 28 27 27 26 25 25 24 24 24 24 24 22 21 20 18 18 18 17 16 14 11 11 11 10 9 9 8 8 7 7 7 7 7 6 6 5 5 5
22 22 24 23 23 22 21 18 17 17 17 17 18 18 17 17 17 17 16 16 15 15 16 16 16 17 18 20 23 26 26 24 24 24 24 24 21 18 18 22 25 27 27 28 28 28 28 27 27 27 27 27 27 27 27 26 25 24 24 23 22 21 19 18 17 17 15 13 12 11 10 10 10 10 9 8 7 7 7 7 6 6 6 5 5
21 21 23 24 23 22 20 19 18 17 17 17 17 17 18 19 19 18 18 17 16 17 17 16 16 18 21 22 24 26 25 23 23 23 23 23 21 19 19 23 25 26 26 26 27 28 28 28 29 29 29 28 26 25 25 24 23 23 22 22 21 20 18 16 16 15 14 13 12 11 11 11 11 10 8 7 7 7 7 6 6 6 6 6 6
19 19 21 23 23 21 19 19 18 17 16 16 17 17 18 19 20 20 19 18 18 17 16 15 16 20 22 23 23 22 21 21 22 22 22 22 21 20 21 23 24 25 26 27 28 29 29 29 29 28 27 25 24 24 24 23 22 22 21 19 18 18 17 16 15 14 14 14 13 12 13 13 12 11 9 8 7 7 7 6 6 6 6 6 6
19 18 19 21 22 22 21 19 17 16 16 16 17 18 19 19 20 20 19 18 19 19 17 16 18 21 21 22 23 23 21 22 23 22 22 22 22 22 23 25 25 26 27 28 28 28 29 28 27 26 24 23 22 22 21 20 19 19 18 17 17 16 16 16 16 15 16 15 14 14 14 13 12 12 10 8 7 7 6 6 6 6 6 6 6
18 17 18 20 22 22 21 19 17 16 16 16 17 18 19 19 19 19 18 18 19 20 17 17 20 22 21 21 22 21 20 21 23 22 21 23 23 24 25 25 26 26 26 26 26 27 27 27 26 24 22 21 20 19 18 17 16 16 16 16 16 16 16 16 16 16 16 15 15 14 14 13 13 13 11 9 9 9 7 7 7 7 6 6 6
17 15 16 19 20 20 20 18 17 16 15 15 14 15 17 18 19 19 19 18 20 19 16 16 20 22 21 21 21 19 18 20 23 24 23 24 24 24 25 25 24 24 24 24 24 24 24 25 24 23 22 20 19 18 17 16 15 15 14 14 14 15 15 15 14 14 14 14 14 15 14 13 13 13 11 11 11 10 8 7 7 7 7 6 6
16 14 15 16 16 16 15 15 15 14 14 13 12 12 13 14 17 19 19 19 20 20 18 17 19 20 20 21 20 18 19 22 24 25 25 25 26 26 25 24 24 24 24 23 22 21 21 21 20 20 19 19 18 17 16 15 15 14 14 14 14 14 13 13 13 13 14 14 14 14 14 14 13 13 12 12 11 10 8 8 8 7 7 6 6
16 15 14 13 13 12 11 10 10 11 9 8 7 8 9 10 13 17 18 17 18 20 20 19 19 19 19 18 17 17 20 23 25 26 26 27 28 27 26 26 25 24 23 22 21 20 19 18 16 16 16 16 15 15 15 14 14 14 14 13 13 13 13 13 13 13 14 14 14 13 13 13 13 13 13 13 12 11 9 8 8 8 7 7 6
14 12 11 9 8 8 7 6 6 6 4 3 4 5 6 7 10 12 14 14 16 17 18 17 17 17 17 17 17 19 22 24 26 27 28 28 28 27 26 25 24 22 21 20 18 17 16 16 15 14 14 14 14 14 14 14 13 13 13 13 13 13 12 13 13 13 13 13 13 13 12 12 12 12 13 13 13 12 11 9 8 8 7 6 6
9 8 6 5 4 4 4 4 4 4 4 5 6 6 7 8 9 11 12 13 13 14 14 15 15 16 17 18 19 20 23 24 25 25 25 26 26 25 23 22 21 19 19 18 16 16 15 14 14 13 13 13 13 12 12 12 13 13 12 12 12 12 12 12 12 12 12 12 12 12 12 12 12 12 12 12 12 12 11 10 9 8 7 6 6
5 4 2 2 2 3 4 6 7 8 9 10 9 10 11 11 12 13 14 14 14 14 15 15 16 17 18 18 19 20 21 21 22 22 22 23 23 21 20 19 18 16 16 15 15 14 14 13 12 12 12 11 11 11 11 11 11 11 11 12 12 12 12 12 12 12 11 11 11 12 12 12 12 12 11 11 11 11 11 10 9 9 8 7 7
1 2 4 5 4 5 7 9 10 10 12 12 12 12 13 13 14 15 17 18 18 17 17 17 17 18 18 18 19 19 19 19 18 19 19 20 19 18 17 16 15 15 14 14 13 13 13 12 11 11 11 11 11 10 10 11 10 10 11 11 11 11 12 11 11 11 11 11 11 11 11 11 11 11 10 10 10 9 9 9 9 8 8 7 8
Wind_Direction
241 239 237 233 234 237 236 234 234 233 233 234 234 235 236 236 236 236 236 234 233 233 232 228 224 225 225 224 225 226 226 228 232 234 232 233 237 239 240 238 236 236 236 236 236 237 236 236 237 240 240 239 239 239 240 242 243 243 243 242 240 241 240 238 241 250 247 244 243 245 244 240 240 240 239 239 239 238 236 235 233 232 233 235 240
242 240 238 236 236 237 235 232 232 231 230 232 235 234 235 236 235 235 234 232 231 229 227 226 226 227 226 226 227 227 230 234 237 234 229 230 234 237 238 237 236 235 235 235 235 236 236 236 237 239 238 238 239 240 241 242 243 243 242 241 241 242 242 239 239 242 246 245 241 240 240 235 232 236 237 237 239 237 234 232 231 230 232 235 240
244 242 239 239 239 238 235 233 231 230 228 231 233 233 234 234 232 233 233 231 229 229 229 229 229 228 227 228 229 230 233 235 234 230 227 228 231 233 234 235 234 234 233 234 235 234 234 234 236 238 239 239 240 241 242 242 243 242 243 243 242 243 245 241 236 235 239 243 239 234 235 230 228 234 237 236 238 237 235 233 232 231 233 235 239
247 244 241 241 241 238 236 235 233 231 229 230 232 232 233 233 232 234 234 233 232 232 232 232 231 229 229 229 231 232 233 232 230 228 228 229 231 232 234 233 233 234 234 235 235 234 233 233 234 237 239 239 240 241 241 242 243 243 243 245 244 246 247 244 238 236 236 238 230 229 234 230 227 233 235 234 235 236 235 235 235 234 235 237 240
248 245 243 242 240 238 238 237 235 234 230 229 232 232 232 233 234 234 234 234 234 234 233 232 231 231 230 231 232 232 231 230 229 228 228 230 231 233 234 234 234 235 236 237 237 236 236 236 236 236 236 237 240 242 241 241 242 243 244 245 247 248 247 244 241 238 235 232 225 226 230 227 226 231 233 232 232 232 233 234 235 235 236 239 241
249 246 243 242 241 240 239 237 236 235 232 230 231 231 232 232 232 233 233 232 233 233 233 233 232 232 231 232 232 232 232 231 230 229 230 230 231 232 234 235 236 237 237 237 238 238 237 236 237 238 237 237 238 240 241 241 241 243 244 245 246 245 243 243 242 239 233 230 227 226 226 224 223 226 230 230 227 226 228 231 234 235 236 238 242
249 246 243 242 242 242 241 239 238 237 235 235 235 233 233 232 232 234 234 233 232 233 233 233 233 232 232 232 232 232 232 231 230 230 231 232 232 233 235 235 236 238 238 238 238 239 239 238 240 241 240 239 240 243 244 243 241 242 243 244 242 239 238 240 240 236 227 223 222 223 224 221 218 220 227 227 223 225 225 225 231 235 235 238 241
248 247 243 241 243 243 242 241 241 239 238 239 238 236 237 236 235 236 236 235 234 234 233 234 233 233 232 232 232 232 232 231 231 231 232 233 233 234 236 236 236 237 238 239 239 239 239 240 241 243 245 245 246 248 247 244 242 242 242 241 237 233 230 231 232 227 218 215 217 218 217 212 208 212 218 213 210 222 225 222 225 232 236 240 242
249 247 244 245 247 246 244 243 241 241 240 240 240 239 240 239 238 237 238 238 237 236 235 235 234 233 233 232 232 232 231 231 232 232 232 232 233 234 235 237 237 237 237 238 239 239 239 240 243 246 248 248 248 247 248 248 245 243 241 237 232 229 225 223 223 219 211 210 213 211 206 205 205 204 206 209 214 224 227 222 224 230 235 242 247
252 249 248 250 252 250 247 246 244 244 243 243 242 242 242 242 242 242 242 241 240 238 237 236 235 234 234 233 232 232 232 232 233 234 235 235 235 234 234 235 236 236 237 238 238 237 238 240 243 245 245 247 246 244 244 244 242 241 242 238 233 229 223 219 218 214 210 211 210 203 197 203 210 210 214 222 226 227 224 221 225 229 231 243 253
256 254 254 255 255 252 250 249 248 247 246 244 243 243 242 242 243 244 244 243 242 241 239 237 236 236 235 234 233 232 233 234 235 236 237 237 238 237 235 235 237 237 237 237 236 237 237 237 240 240 239 240 241 238 235 234 234 235 237 238 238 235 227 221 215 210 208 210 212 208 206 211 218 219 221 227 228 227 225 223 224 223 222 233 248
261 259 259 258 256 253 251 250 249 248 246 244 243 242 242 242 242 242 242 243 243 241 240 239 238 237 236 236 235 235 235 236 237 238 238 239 240 239 236 236 237 236 236 236 237 238 236 235 235 234 233 234 234 232 229 227 228 230 232 236 238 237 235 230 223 217 213 212 212 213 214 217 220 223 225 229 231 230 227 225 225 221 219 229 237
267 264 263 260 257 255 253 251 250 250 247 244 242 241 241 241 240 239 240 240 241 241 241 240 240 239 238 237 237 237 237 238 239 239 240 242 241 238 237 237 237 236 236 236 235 234 232 230 227 226 228 230 228 226 224 223 223 226 229 231 232 233 234 235 234 232 227 222 217 218 221 222 225 233 240 241 236 229 223 224 229 228 226 233 240
270 267 266 263 259 256 253 250 250 251 248 243 240 239 239 240 239 238 237 237 237 238 239 239 239 239 239 239 239 240 240 240 241 240 240 241 239 236 235 236 236 237 238 236 232 230 229 226 223 223 224 222 219 218 218 219 221 223 224 224 225 228 229 229 230 232 233 231 227 227 232 234 237 245 254 253 243 234 231 233 234 233 234 239 245
274 272 269 266 262 257 253 250 248 249 247 242 238 237 238 239 238 236 234 233 234 235 237 238 238 238 238 238 238 239 240 240 239 238 237 236 234 232 232 233 232 231 233 233 230 228 227 223 220 221 220 216 214 214 216 219 221 222 222 221 221 223 224 226 227 228 231 232 233 236 240 245 248 252 257 258 251 246 244 243 242 241 243 248 253
276 275 272 269 264 260 256 252 248 246 243 239 237 236 236 236 236 233 231 230 231 232 233 234 235 234 235 235 236 238 238 236 234 233 233 232 229 227 227 227 225 224 225 226 224 223 224 221 217 216 215 214 213 214 216 219 221 220 219 219 220 219 220 223 226 228 231 234 237 242 245 249 252 253 254 255 250 243 240 239 241 240 239 245 251
274 274 274 273 270 265 261 255 249 245 239 234 235 235 234 233 232 229 225 224 224 224 226 228 230 231 232 232 233 235 235 232 229 229 229 227 224 223 222 221 220 220 218 217 216 216 217 218 215 212 212 213 213 212 215 218 218 217 215 215 215 216 217 219 222 226 231 235 239 243 245 248 249 247 245 242 237 232 223 222 227 225 217 224 241
274 274 275 276 274 270 265 258 251 246 238 235 236 235 232 231 230 226 222 221 221 221 221 223 225 227 228 229 229 230 230 229 228 225 223 222 221 219 217 215 213 211 209 208 210 210 211 213 214 213 213 213 212 210 212 215 214 213 212 210 210 212 213 214 218 223 227 231 235 237 239 240 238 234 233 229 229 230 219 217 225 220 207 217 241
275 276 277 278 275 271 267 261 254 247 241 240 239 235 232 231 229 226 223 222 223 221 218 219 221 222 224 226 226 226 227 229 226 221 220 220 219 216 212 207 204 203 203 203 204 206 209 209 210 212 213 211 207 206 208 210 211 213 211 206 206 209 211 212 217 222 223 225 229 230 231 231 228 228 229 226 228 231 223 224 230 223 215 226 242
282 280 280 278 272 268 266 263 257 250 245 244 242 238 235 231 228 225 223 223 224 223 220 219 221 222 222 224 225 224 224 226 224 221 221 220 218 214 210 206 204 202 201 202 202 204 206 206 205 208 208 204 202 202 204 205 207 211 211 209 208 210 211 213 218 221 221 221 223 223 223 223 222 224 228 227 227 224 219 223 226 220 222 236 243
289 286 283 279 272 268 265 263 260 256 251 247 243 241 238 232 228 225 221 220 221 222 222 222 223 225 225 224 225 226 225 225 225 224 225 224 221 218 216 215 214 210 205 204 205 206 206 205 205 205 202 199 199 199 201 202 204 210 213 213 212 212 212 212 212 210 210 211 210 209 211 213 211 211 214 217 219 218 217 224 228 227 229 237 247
297 292 287 282 276 271 268 265 263 259 254 248 242 241 238 233 229 225 220 218 219 221 225 225 225 226 227 226 226 226 226 227 226 225 224 224 222 221 221 223 221 217 211 207 206 207 207 208 207 204 199 197 196 196 198 199 201 208 211 210 208 207 206 203 199 197 197 198 197 196 198 199 198 202 205 210 217 222 224 230 235 237 238 240 245
303 296 290 284 280 275 271 268 264 259 254 247 241 239 236 231 227 224 220 218 218 220 223 224 222 222 222 223 224 225 225 225 225 225 225 225 224 222 222 223 222 218 214 212 209 208 208 208 206 202 198 196 194 194 195 196 198 202 202 199 196 193 189 187 188 189 190 188 186 185 188 187 186 193 203 211 218 221 223 229 231 232 235 236 238
305 298 293 287 283 280 276 271 264 258 253 246 240 237 234 229 224 222 219 218 217 217 218 217 216 216 215 216 218 219 220 220 221 222 223 223 223 222 220 221 221 218 216 215 213 209 208 208 204 198 195 194 191 189 190 193 194 193 190 188 186 182 180 179 180 182 182 179 174 172 180 184 179 179 189 194 195 194 198 208 211 212 218 223 228
304 299 295 290 285 282 278 272 265 258 253 245 238 234 230 226 222 220 217 216 215 214 212 211 212 213 211 210 212 213 213 214 214 214 215 216 216 216 215 216 217 215 214 213 211 209 210 209 201 194 191 189 184 182 184 187 186 184 183 182 179 176 176 175 175 176 175 172 167 162 170 177 173 169 172 170 166 167 170 174 178 182 194 198 214
302 298 295 292 288 283 276 270 264 259 253 245 239 236 231 225 222 220 217 216 215 214 212 209 209 210 210 209 209 208 207 209 210 209 209 210 211 211 211 212 212 212 211 211 211 212 209 201 191 186 184 181 177 178 178 176 176 178 179 177 175 174 174 172 172 172 169 165 159 153 158 165 163 160 158 152 149 152 154 152 149 153 170 162 146
297 296 296 294 290 283 274 267 262 258 252 245 239 236 233 228 224 220 217 215 213 213 213 209 206 207 209 208 206 203 203 206 207 207 208 210 210 208 208 208 208 208 207 207 205 200 191 183 180 178 175 172 174 175 171 167 169 172 172 172 173 172 172 173 173 169 161 158 154 153 157 159 154 151 149 145 148 156 159 153 143 142 155 144 126
291 291 294 294 290 283 272 264 258 254 251 245 239 235 232 228 226 225 222 218 214 212 212 211 207 206 205 203 199 198 202 205 206 208 208 206 203 201 201 201 201 200 200 195 187 180 175 172 170 168 167 166 167 166 164 163 167 170 168 168 168 167 167 169 168 164 160 158 155 154 156 153 149 151 151 147 151 161 163 155 142 139 139 123 118
288 285 289 291 289 283 273 263 257 252 249 246 242 239 236 232 231 233 232 228 223 220 219 220 216 211 208 205 197 193 199 205 207 208 206 204 201 197 195 195 194 194 193 186 177 170 166 164 162 162 163 163 161 161 162 162 163 167 167 166 165 165 164 162 160 160 162 161 158 156 156 153 153 158 157 152 152 154 154 149 138 132 130 122 126
286 282 283 282 281 279 272 265 260 254 249 246 243 243 243 240 238 239 240 238 232 228 229 232 228 220 216 213 209 206 209 210 208 206 205 205 204 201 199 199 195 191 188 183 176 168 164 162 161 162 164 164 162 162 163 163 162 163 165 166 166 167 166 162 160 163 164 163 162 161 162 162 161 161 161 156 150 146 144 141 136 134 134 134 140
286 282 279 273 271 271 268 266 263 256 250 247 243 242 244 244 242 241 242 242 238 233 232 235 234 227 223 221 219 217 218 217 213 208 206 204 202 201 199 196 191 188 185 178 172 167 165 163 163 165 167 168 169 168 167 165 165 165 165 166 168 168 168 166 164 165 165 164 164 164 164 164 163 162 160 152 145 142 142 141 141 142 146 150 159
284 283 280 272 266 264 262 262 262 256 251 248 243 240 239 240 240 240 239 240 241 239 235 235 235 233 231 229 225 221 218 218 216 212 206 202 198 196 193 188 185 186 183 176 170 169 168 165 165 169 171 172 173 174 172 170 170 169 168 168 169 171 173 172 170 169 168 167 166 165 165 165 162 158 153 148 144 143 144 150 154 154 157 166 183
281 283 283 276 265 254 249 252 255 253 250 247 241 237 234 231 232 236 236 237 240 241 239 236 235 235 236 233 230 227 224 220 216 210 203 198 194 189 187 186 185 184 179 175 172 172 170 168 169 171 173 174 175 175 175 176 175 174 172 173 174 174 175 175 174 172 171 169 168 165 165 164 159 153 149 146 146 147 151 158 163 165 172 187 203
281 279 277 274 268 254 242 242 246 248 249 246 241 236 232 229 229 229 228 229 233 236 236 235 233 233 234 231 228 227 225 221 216 207 198 193 188 184 181 181 182 182 180 179 177 173 170 171 172 172 173 175 175 175 176 177 177 176 175 175 174 172 171 171 171 171 170 168 167 164 163 161 155 149 148 149 150 155 161 166 172 178 185 193 207
285 280 275 269 264 257 247 238 237 240 242 240 238 236 232 229 229 227 221 216 219 224 229 230 228 227 228 227 224 223 222 220 213 203 194 187 183 179 174 170 173 180 184 185 181 177 175 174 173 173 174 174 174 175 175 174 174 174 173 172 170 168 168 169 169 169 168 166 165 165 164 163 157 149 149 155 161 165 169 175 181 187 190 195 205
287 283 279 269 259 255 251 242 233 231 232 233 235 236 233 229 226 224 221 218 217 215 217 222 224 222 222 224 222 219 218 215 206 196 188 184 180 176 171 169 174 181 185 186 183 179 177 175 173 172 172 171 171 173 173 172 172 172 172 170 168 168 168 169 169 169 168 167 167 168 166 163 161 156 155 162 170 172 175 181 184 187 190 192 198
285 282 281 276 264 254 249 242 234 229 227 227 229 229 229 227 222 218 216 214 211 208 206 207 209 211 214 218 218 214 211 206 198 191 185 182 181 180 177 175 176 179 182 184 181 177 174 173 171 169 168 169 170 171 171 170 169 169 168 168 168 168 168 170 171 172 170 167 169 171 167 161 161 163 164 169 173 175 178 182 183 185 187 188 195
286 281 279 278 272 260 249 241 234 227 220 216 216 217 219 220 217 214 212 207 201 198 195 194 196 197 197 199 200 197 192 187 183 181 179 178 181 184 183 179 178 179 180 181 179 175 171 169 167 166 167 168 169 169 168 168 168 167 167 167 167 168 169 171 174 175 171 163 163 167 165 159 161 167 172 174 176 177 177 178 179 178 178 184 191
289 284 282 279 273 265 256 244 234 224 215 209 207 207 210 213 214 213 212 206 198 194 191 190 193 194 189 183 179 176 173 171 172 172 173 176 181 185 185 181 180 180 178 177 175 171 167 164 165 167 169 170 170 170 169 170 170 171 171 170 169 170 172 173 175 176 173 167 166 167 166 164 167 173 176 176 177 177 174 174 176 175 177 183 186
289 287 285 281 272 265 260 251 239 226 216 210 205 201 203 208 212 211 208 203 198 194 191 189 189 186 182 179 176 172 170 171 173 172 171 174 178 179 179 179 179 177 175 173 171 168 166 165 168 171 172 173 174 174 174 174 173 174 175 173 171 171 173 175 177 177 176 176 175 176 178 180 181 181 180 175 174 174 170 171 176 176 176 181 181
289 287 286 283 275 267 260 252 242 233 224 217 210 204 202 203 205 206 205 202 198 193 189 187 184 181 179 179 179 177 174 173 173 172 173 174 174 172 174 177 176 174 172 170 170 170 169 169 171 172 172 173 174 174 174 174 173 171 171 171 171 173 175 179 183 185 187 188 187 185 187 188 186 183 179 171 166 167 168 169 172 173 174 177 180
287 285 286 285 278 269 259 252 246 239 230 223 217 210 203 198 199 202 202 200 196 191 186 183 180 178 177 177 178 180 179 174 170 170 172 173 172 169 169 171 171 172 171 170 170 171 171 169 169 170 170 171 172 171 172 172 172 171 171 173 175 177 180 185 190 193 195 196 194 192 191 190 186 183 179 169 161 161 166 168 168 168 173 176 176
283 281 284 285 279 270 262 256 250 241 232 225 221 215 206 197 195 196 197 196 192 187 183 180 177 175 175 177 180 181 179 174 171 169 169 170 169 167 166 167 168 170 171 171 172 173 171 167 166 167 169 169 170 170 171 172 173 174 175 177 180 182 185 189 192 194 196 198 199 198 197 195 191 185 179 171 165 163 164 169 171 172 175 177 177
281 279 280 281 277 271 266 260 254 246 237 229 223 216 207 197 189 188 190 189 186 185 184 180 176 172 171 175 179 177 171 168 169 167 165 166 167 166 166 167 169 172 172 172 172 171 168 165 164 165 166 167 168 170 172 174 176 179 180 181 184 187 190 194 197 198 199 200 200 199 197 196 194 189 184 184 185 180 170 168 172 174 175 177 177
278 275 277 277 274 270 265 260 255 249 241 229 220 212 205 195 186 181 181 180 179 179 179 176 175 172 169 171 174 169 160 161 166 166 165 166 166 165 166 167 169 170 169 167 166 166 165 164 162 162 164 167 170 173 175 177 179 182 184 187 190 193 196 199 200 199 199 199 198 195 193 192 193 193 191 190 192 187 175 168 171 173 175 178 179
272 270 271 272 269 266 263 259 255 249 239 226 214 204 199 193 183 176 175 175 175 174 171 169 171 171 168 167 167 163 161 165 167 165 163 162 160 159 159 160 162 163 163 161 160 161 161 162 163 163 166 169 172 175 178 180 182 185 187 190 194 197 198 198 197 195 196 196 194 192 190 190 191 193 191 186 184 181 173 169 171 173 175 177 178
271 267 266 265 263 260 257 253 248 243 238 230 213 199 193 187 175 168 167 168 169 168 166 164 164 165 163 158 154 153 157 161 160 157 155 155 154 153 155 156 158 159 158 157 157 157 159 162 165 167 170 174 176 179 181 183 185 188 190 192 196 197 196 195 193 192 192 191 189 189 189 188 189 190 188 184 181 179 177 174 175 176 178 178 176
271 266 262 258 256 252 247 237 230 228 225 215 189 171 163 158 153 150 149 150 152 154 154 153 152 152 149 147 148 150 151 150 149 149 149 150 150 152 154 156 157 157 156 156 157 159 162 167 170 173 176 179 181 183 185 186 188 190 192 193 195 195 194 192 191 189 188 187 186 187 189 189 188 188 188 187 186 185 183 178 175 174 176 174 171
268 266 261 252 247 244 228 197 178 167 153 143 136 127 121 120 119 119 121 124 128 132 133 133 135 138 140 142 145 146 145 143 143 144 146 148 151 153 155 155 156 157 158 159 161 164 168 172 175 178 181 184 185 187 189 189 190 191 192 191 192 191 190 190 189 188 187 188 188 189 191 191 190 189 188 188 188 187 186 183 178 174 174 175 177
254 243 212 184 190 200 178 156 143 135 131 130 127 120 115 112 110 109 110 109 107 111 117 122 127 133 137 139 141 141 141 143 144 145 147 151 153 154 155 156 157 160 162 164 166 169 172 175 178 181 184 187 189 191 192 191 191 191 190 189 190 190 189 189 189 189 190 192 193 194 194 192 189 188 187 187 186 186 187 188 186 184 183 186 193
172 127 122 130 148 161 151 137 129 126 126 127 126 123 120 116 113 112 113 112 110 112 117 122 126 131 135 138 142 144 146 147 147 148 151 153 155 156 158 161 163 165 166 168 169 171 174 177 180 183 187 189 192 195 195 194 193 191 189 190 192 192 192 192 193 194 195 195 195 197 197 194 191 188 186 185 187 189 189 190 191 191 192 196 203
Height
729 729 729 730 731 731 732 733 734 736 737 739 740 740 741 741 742 744 745 746 748 749 749 751 753 754 755 755 756 757 758 759 760 761 762 763 764 765 766 767 768 768 770 770 771 772 773 774 774 775 777 777 777 778 778 779 780 781 782 783 783 785 786 787 786 786 788 789 789 789 789 790 791 792 794 795 796 798 799 801 803 804 806 806 806
725 725 726 727 727 727 728 729 730 731 733 735 736 736 737 737 739 741 741 742 744 745 746 747 748 749 750 751 751 753 753 754 755 756 758 758 759 761 762 763 764 764 765 766 767 768 769 769 770 771 773 773 773 774 775 776 777 777 778 779 780 781 783 783 784 784 785 786 787 787 787 788 789 790 791 792 794 795 796 797 798 800 801 802 802
722 723 723 723 723 724 725 725 726 728 729 731 731 731 733 733 735 737 737 738 740 741 742 743 744 745 746 746 747 748 748 749 751 752 753 754 755 756 757 758 759 760 761 761 762 764 764 765 766 767 769 769 769 770 771 772 773 773 774 775 776 777 779 780 781 781 782 783 784 785 785 786 787 788 789 790 791 792 793 794 796 797 797 798 798
719 720 720 720 720 721 721 721 723 724 725 726 726 727 728 730 732 732 734 735 735 737 738 739 740 741 741 742 742 743 744 745 746 747 748 750 751 752 753 754 755 755 756 757 758 759 760 760 761 763 765 765 765 766 767 768 769 770 771 772 773 774 775 777 777 778 779 781 782 783 783 784 785 786 786 787 788 790 791 792 793 794 795 795 795
716 716 716 717 717 717 717 717 718 719 720 721 722 723 724 726 727 727 729 730 731 732 734 734 736 736 736 737 738 738 739 741 742 743 744 745 747 748 749 750 751 751 752 753 754 755 756 757 758 759 760 761 761 762 763 764 765 766 767 769 770 771 772 773 774 776 777 778 780 780 781 783 783 783 783 785 786 787 789 790 790 791 792 792 792
714 713 713 714 713 713 713 713 714 714 715 717 718 719 720 721 722 722 723 725 726 727 728 729 730 731 731 732 733 734 735 737 738 739 740 741 742 744 745 746 747 747 748 749 750 751 752 753 754 755 756 756 757 758 759 760 762 763 764 765 766 768 769 770 771 773 774 776 777 777 778 779 780 780 781 782 783 785 786 787 788 788 789 789 788
711 710 711 711 710 709 709 710 710 711 712 713 714 716 716 716 717 717 718 719 721 722 723 724 725 726 727 728 729 730 731 732 734 735 736 737 739 740 741 742 743 743 744 745 746 747 748 749 750 751 752 752 753 755 756 757 758 759 760 761 763 765 766 767 768 769 771 772 773 773 773 774 776 777 778 780 782 783 784 785 785 785 785 785 784
708 708 708 707 706 705 706 707 708 709 710 710 711 712 712 712 713 714 714 715 716 717 718 719 720 721 723 724 725 726 727 728 729 730 732 733 734 736 737 738 739 739 740 741 742 743 744 745 746 747 748 749 750 751 752 753 754 755 756 758 760 761 763 764 765 766 767 767 768 769 770 771 773 775 776 778 780 780 780 781 781 781 782 781 781
705 705 705 704 702 702 703 704 704 705 706 707 707 708 708 709 710 711 711 712 712 713 715 716 717 718 719 720 721 722 723 723 725 726 728 729 731 732 733 734 735 735 737 737 738 739 740 741 742 744 745 745 747 748 749 750 751 752 753 755 756 758 759 760 761 762 763 764 765 766 768 770 771 772 773 774 774 775 776 777 778 779 780 780 779
703 703 702 700 699 700 701 701 700 701 702 702 703 704 705 706 707 708 708 709 709 711 712 713 714 715 715 716 717 718 718 719 721 722 724 726 727 728 729 730 731 732 733 733 734 735 736 737 739 740 741 743 744 745 746 747 748 749 751 752 753 754 755 756 757 758 760 761 762 764 765 766 766 768 769 770 770 772 774 775 776 778 779 779 777
701 700 699 697 698 698 698 698 697 697 697 698 699 700 701 702 703 704 705 705 706 708 709 710 710 711 712 713 714 714 715 716 717 719 721 723 724 725 725 726 727 728 729 729 730 731 732 734 735 736 738 739 741 742 743 744 745 747 748 749 750 750 751 752 753 755 757 758 760 761 762 762 763 764 766 767 768 770 772 773 775 776 778 778 776
698 697 696 696 696 695 695 695 694 694 694 694 695 696 698 699 699 699 700 701 703 705 706 706 707 708 709 710 710 711 711 713 715 716 718 719 720 721 722 723 723 724 725 726 727 728 729 730 731 733 734 736 737 739 740 741 742 744 745 746 747 748 748 749 750 752 754 755 757 758 758 759 760 761 763 765 766 768 770 772 773 775 776 776 775
696 694 694 693 692 692 692 693 692 691 690 691 692 693 695 695 694 695 696 698 700 701 702 703 704 705 706 706 707 707 708 710 712 713 715 716 717 718 718 719 720 721 722 723 724 725 726 727 728 729 731 733 734 736 737 739 740 741 742 743 745 746 747 748 749 750 751 753 754 755 755 756 758 759 760 763 764 766 769 770 771 772 773 773 773
693 692 691 691 690 689 689 689 689 689 688 688 689 689 690 690 691 691 692 694 696 697 698 699 700 701 702 702 703 704 705 706 708 710 711 712 713 714 715 715 717 718 719 720 721 722 722 723 724 725 727 729 731 733 735 736 737 738 740 741 742 744 745 747 748 749 750 751 752 753 754 755 756 758 759 761 763 765 766 767 768 769 770 771 772
690 690 689 689 688 687 685 684 685 685 685 686 685 685 685 686 687 688 689 690 691 692 693 695 696 697 697 698 699 699 700 702 704 705 706 707 709 710 710 711 713 714 715 717 718 719 720 720 721 722 724 726 728 729 732 734 735 736 737 738 740 742 743 744 745 747 748 749 750 751 752 753 755 756 758 759 761 763 764 765 766 767 769 769 770
688 688 687 686 686 686 684 682 681 681 682 682 682 681 680 681 682 683 685 685 686 687 689 689 691 692 693 694 694 694 695 697 699 700 702 703 705 705 706 707 708 710 711 713 714 716 717 718 718 719 721 723 725 727 729 731 733 734 735 736 738 739 740 742 743 744 746 747 748 749 750 751 753 754 755 756 758 759 761 762 764 765 767 768 768
686 686 685 684 684 683 681 680 679 678 679 679 678 677 676 677 679 680 681 681 681 682 683 684 686 688 689 690 690 690 692 694 695 697 698 699 700 701 702 703 705 706 707 709 711 712 713 715 716 717 719 721 722 724 726 729 730 732 733 734 735 736 738 739 741 742 744 745 746 747 748 749 750 751 752 753 754 756 758 759 760 762 764 765 765
685 685 683 682 681 679 678 678 677 677 677 675 673 673 673 674 675 676 677 677 676 676 678 680 682 683 685 686 686 687 689 690 692 693 695 696 697 698 699 700 701 702 704 705 707 708 710 711 713 715 716 718 720 721 723 726 729 730 731 732 733 733 734 736 738 740 742 743 744 745 746 746 747 748 749 751 752 753 755 756 757 759 761 762 762
682 681 680 680 679 677 675 674 673 673 673 671 670 670 670 671 673 674 675 674 674 675 676 677 679 680 681 683 684 685 686 688 689 690 691 693 694 695 696 697 698 699 700 702 703 705 706 708 710 712 714 715 717 718 720 723 727 729 731 731 730 731 732 734 736 738 739 741 742 743 744 745 746 747 748 750 751 752 754 755 756 757 758 759 760
677 676 676 676 676 674 672 671 670 669 668 668 669 669 669 670 671 672 673 674 675 676 676 677 677 678 680 681 682 683 684 685 687 688 689 691 692 693 694 694 695 696 697 699 700 702 703 704 706 708 710 712 714 715 717 720 724 727 729 729 729 730 731 733 735 736 738 740 741 742 743 744 745 746 748 749 751 752 753 754 755 756 757 758 759
672 671 671 671 671 670 670 669 668 667 665 665 667 668 669 669 670 670 672 673 673 674 675 675 676 677 678 679 680 680 682 683 685 686 688 689 690 691 692 692 693 695 696 697 698 699 700 701 703 705 707 709 711 713 715 718 721 724 726 727 728 729 730 732 734 736 738 739 740 741 742 743 745 746 747 749 750 751 752 753 754 755 755 756 757
669 668 667 666 666 666 666 666 665 664 664 664 664 664 665 667 668 669 670 670 670 671 672 673 674 674 675 675 676 677 678 680 682 683 684 686 688 689 690 691 692 694 695 696 696 697 698 699 700 702 704 706 708 710 713 716 719 722 724 725 726 728 729 731 733 735 736 738 740 741 742 743 744 745 746 747 749 750 752 753 754 754 754 755 755
667 665 663 662 661 661 661 661 661 661 661 661 661 662 662 664 665 666 667 667 667 667 668 670 672 671 672 672 672 674 675 676 678 680 681 683 684 686 687 689 690 692 693 694 695 696 697 697 698 700 703 705 706 709 711 714 717 720 722 724 725 726 728 730 732 734 735 737 739 740 741 742 743 744 745 746 748 749 751 752 752 752 752 752 753
664 662 660 658 657 657 657 657 657 658 658 659 659 659 660 661 662 663 664 664 664 664 664 667 669 668 668 669 669 670 671 673 674 676 678 680 682 683 685 686 688 689 691 692 693 694 695 696 697 699 701 704 706 708 710 713 715 718 720 722 724 726 728 729 731 733 735 736 738 739 740 741 743 744 745 745 746 748 749 750 751 751 751 751 751
661 659 657 656 654 654 654 654 655 655 656 657 657 656 657 658 659 659 660 660 661 660 661 663 665 665 665 665 666 666 667 669 671 673 675 677 679 681 682 683 685 687 689 690 692 693 694 695 696 698 700 702 705 707 709 711 714 717 719 721 723 725 727 729 731 732 734 736 737 738 739 741 742 743 744 745 746 747 748 749 750 750 750 750 750
658 656 655 654 653 652 651 651 652 653 653 654 654 654 655 655 655 656 657 656 656 657 658 658 660 662 662 662 662 663 664 666 668 670 673 675 676 678 679 681 683 685 687 689 690 691 693 694 695 697 699 701 703 705 707 710 713 715 717 720 722 724 726 728 730 732 734 735 736 737 739 741 742 743 743 744 746 747 748 749 749 749 749 749 749
655 654 653 653 652 651 649 648 649 649 650 651 651 652 652 653 653 653 652 652 652 653 655 655 655 656 657 657 658 659 660 662 664 666 669 671 672 674 676 678 680 682 684 686 688 689 691 693 694 696 698 700 703 705 707 710 712 714 716 719 721 722 724 727 729 731 732 733 735 736 738 740 741 742 743 744 746 746 747 748 748 748 748 748 748
653 651 651 651 650 649 648 646 646 646 647 647 648 648 649 650 649 648 647 647 648 649 650 649 648 648 650 652 654 656 657 657 658 659 661 664 666 669 672 674 676 678 680 683 685 688 689 691 693 695 697 700 702 705 707 710 712 713 715 717 719 721 723 725 727 729 730 732 733 735 737 739 740 741 743 744 745 745 746 746 747 747 746 746 747
651 649 647 647 648 647 646 645 644 643 643 644 644 645 645 646 646 645 645 646 646 647 648 647 645 645 647 648 649 650 650 650 651 653 656 659 662 664 667 669 672 675 677 679 682 685 687 689 691 693 696 698 701 704 706 708 710 712 713 715 717 720 722 723 725 727 729 731 732 735 736 738 739 740 742 743 744 744 744 745 745 745 745 746 747
649 647 645 643 644 645 644 643 642 641 640 640 640 641 642 644 644 644 645 645 646 647 648 647 647 647 648 647 646 645 644 645 647 651 654 657 659 661 664 666 669 672 675 677 679 681 683 685 688 690 693 696 699 701 704 705 707 709 712 714 716 718 720 722 724 725 728 730 731 733 735 736 737 739 740 741 742 743 743 744 744 745 745 746 747
648 645 642 641 640 641 641 641 640 640 639 638 638 638 639 640 641 642 644 645 645 646 645 646 647 648 648 647 646 645 645 646 647 648 650 654 657 660 662 665 667 669 672 675 677 679 680 682 685 688 691 693 695 697 700 702 705 707 709 712 715 716 718 720 722 723 726 728 730 731 732 734 736 737 738 739 740 742 743 744 744 745 745 746 746
649 644 641 639 637 636 637 638 638 639 638 637 637 636 636 637 638 639 641 642 643 644 643 644 644 646 646 646 646 645 645 645 646 647 648 651 654 658 661 664 666 668 670 673 675 677 677 679 682 685 688 690 692 694 696 699 702 704 707 709 712 713 715 717 719 721 723 725 727 729 730 732 734 735 736 737 739 741 742 743 744 744 745 745 746
648 645 641 638 635 633 633 634 635 635 635 635 635 635 635 635 635 636 637 639 641 642 642 642 642 642 644 644 644 644 644 644 644 646 647 649 652 656 659 662 664 667 669 672 674 675 675 676 679 681 684 686 689 692 694 697 699 701 704 706 708 710 712 714 716 718 720 722 724 726 728 730 731 733 734 736 737 739 741 742 743 743 744 745 745
647 644 641 639 636 632 630 629 630 631 632 633 634 634 633 633 633 634 635 636 638 639 639 639 639 639 640 642 643 643 643 643 643 644 646 648 651 654 658 662 665 667 668 669 671 672 673 675 677 679 682 684 687 690 693 696 698 700 702 704 706 708 710 713 715 716 718 720 722 724 726 728 729 731 733 734 736 738 739 740 741 742 742 743 744
646 643 640 638 636 633 629 627 626 627 629 631 632 633 632 632 632 632 632 633 634 635 637 637 637 637 638 639 640 641 642 642 642 643 644 647 650 653 656 661 664 666 667 668 668 669 670 672 674 677 680 683 686 689 692 695 697 699 701 703 706 708 710 712 714 716 717 719 721 723 725 726 727 729 731 733 734 736 737 738 739 740 741 741 742
645 643 639 636 634 631 629 626 624 623 625 627 629 630 631 631 631 631 631 631 632 633 634 636 636 636 637 637 638 639 640 641 642 643 644 646 648 651 653 656 660 663 665 666 666 667 668 669 671 674 678 682 685 689 692 694 696 698 701 703 705 708 710 712 713 715 717 719 720 722 723 724 725 727 729 731 733 734 735 736 738 738 739 739 740
644 642 639 636 633 630 627 625 622 621 620 622 624 627 629 629 630 630 629 630 630 631 632 634 635 636 636 636 637 638 638 639 641 642 644 645 648 649 650 652 656 660 662 663 664 665 666 667 669 672 676 681 685 688 691 693 695 698 700 703 706 708 710 712 714 715 717 718 719 720 721 722 723 725 727 729 730 732 733 734 735 736 737 738 739
640 639 637 636 634 630 626 623 621 619 618 618 619 622 625 627 628 628 628 627 628 629 630 631 633 634 634 635 636 637 638 639 641 642 643 645 647 649 650 651 653 656 658 660 661 662 664 666 668 671 675 680 683 686 688 691 693 696 699 702 705 707 709 711 713 715 716 717 718 719 720 721 722 724 725 727 728 729 731 732 733 734 735 736 737
636 635 633 632 631 630 627 623 619 617 616 614 615 617 620 623 625 626 626 626 626 626 627 629 630 631 632 633 635 636 637 638 639 640 641 643 646 648 650 651 653 654 656 658 660 661 662 664 667 671 675 678 681 683 685 688 691 693 696 699 702 704 707 709 712 714 715 716 717 718 718 720 721 723 724 725 726 727 728 729 730 732 733 734 736
634 632 630 629 628 627 625 623 619 616 614 612 611 612 614 618 621 623 624 624 624 624 625 626 627 628 629 631 632 633 635 637 637 638 639 641 644 647 649 650 651 653 656 658 659 660 660 662 665 669 673 676 678 681 683 686 688 691 693 696 699 701 705 707 709 711 713 714 715 717 717 719 720 722 723 723 724 725 726 727 728 730 731 733 734
632 630 628 627 625 624 622 620 618 616 613 612 610 609 609 612 616 619 621 622 622 623 623 624 624 625 627 629 630 631 633 634 636 637 639 640 642 645 647 648 651 653 656 658 659 659 660 662 665 668 672 675 678 681 683 686 688 690 692 695 697 700 703 705 708 710 711 713 714 715 717 718 719 720 721 721 722 723 724 725 727 728 730 731 732
630 627 625 625 624 622 620 618 616 614 612 611 610 608 606 607 611 614 617 619 621 622 623 623 623 624 625 627 629 630 632 633 635 637 639 640 642 643 645 647 650 653 655 657 658 659 661 663 666 669 672 675 678 681 683 686 688 689 691 693 696 698 701 704 706 708 709 711 712 713 715 716 717 718 719 719 720 721 722 724 725 726 728 729 730
627 624 623 623 622 621 620 617 615 613 611 609 609 608 606 605 606 610 614 616 618 620 622 622 623 624 625 626 627 628 630 633 635 636 638 640 641 643 645 647 649 653 655 657 659 660 662 665 668 670 673 676 679 681 683 685 687 689 691 692 694 697 699 701 703 705 707 708 710 711 712 714 714 715 716 717 718 719 721 722 723 724 726 727 728
624 622 621 620 620 620 619 618 616 613 611 608 608 607 606 605 604 607 610 613 615 618 621 622 622 624 625 626 627 628 630 632 634 636 638 640 642 643 645 647 650 653 656 658 660 662 664 666 668 671 674 677 679 682 684 686 687 688 690 691 693 695 697 698 700 702 704 706 707 709 710 711 712 713 714 715 716 717 719 720 721 723 724 725 726
621 619 618 617 617 618 617 617 616 614 611 609 607 607 608 606 604 604 608 611 612 616 619 621 622 624 625 626 627 629 630 632 633 635 637 640 642 644 646 648 651 655 657 659 662 664 665 667 669 671 674 677 679 681 684 685 687 688 690 691 692 694 695 697 699 701 703 704 706 707 708 709 710 711 712 713 714 716 717 718 720 721 722 723 724
619 617 615 615 615 616 615 616 616 614 612 610 608 608 608 607 604 604 606 609 611 613 617 620 622 624 625 627 628 630 631 632 633 635 637 639 642 644 647 651 654 657 659 661 663 665 666 668 670 672 674 677 679 681 683 685 686 688 689 690 691 693 695 697 699 700 702 703 704 705 706 708 709 710 711 712 713 714 715 717 718 719 720 722 723
618 615 613 612 613 614 614 614 614 614 613 612 609 609 610 609 607 605 606 609 611 613 616 619 622 624 626 628 629 631 631 632 633 635 637 639 642 645 649 652 655 658 660 662 664 666 668 670 672 674 676 678 680 682 683 684 686 687 688 689 691 692 694 696 698 700 701 702 703 704 705 707 708 709 709 710 712 713 714 715 716 718 719 720 721
617 614 612 611 612 613 613 613 613 614 613 612 611 611 611 611 610 609 608 611 614 615 617 621 624 626 627 629 630 632 633 634 635 636 638 640 643 646 650 653 656 658 660 662 664 667 669 671 673 675 677 679 680 682 683 684 685 686 687 689 690 692 693 695 697 699 700 702 703 704 705 706 707 707 708 709 710 711 712 714 715 716 717 718 719
617 615 612 611 613 614 613 612 612 612 613 613 613 613 613 613 613 612 612 614 617 619 621 623 626 628 630 632 634 635 636 637 638 639 641 643 645 648 651 653 656 658 660 662 665 667 669 672 674 676 678 679 681 682 683 684 685 686 687 688 689 691 693 695 697 698 700 701 702 703 704 705 706 706 707 708 709 710 711 712 714 715 716 717 718
618 615 613 612 614 616 615 613 611 611 612 613 614 614 614 615 615 614 614 617 620 623 625 627 629 631 634 636 638 640 640 641 642 643 644 646 648 650 652 654 656 658 660 662 664 667 669 671 674 676 678 680 681 682 683 684 685 686 687 688 689 691 693 694 696 697 699 700 701 702 703 704 704 705 706 706 707 708 709 711 712 713 714 715 717
619 616 614 614 618 619 618 614 612 612 613 614 616 617 617 617 617 616 615 617 621 626 629 631 633 635 637 639 641 643 644 645 646 647 648 649 651 652 654 655 657 659 661 663 664 667 669 671 673 676 677 679 681 682 683 685 686 687 688 689 690 691 693 694 695 697 698 699 700 701 702 703 703 704 704 705 706 707 708 709 710 712 713 714 715